www.pogodaiklimat.ru

Погода и климат >> Архив погоды >> Россия >> Приморский край >> Партизанск


ПОГОДА в Партизанске

  • Прогноз погоды в Партизанске
  • Монитор погоды в Партизанске
  • Климат города

АРХИВ ПОГОДЫ в Партизанске

Время (UTC), дата Ветер
(напр.,м/с)
 
Видим.   Явления Облачность Т
(С)
Тd
(С)
f
(%)
Тe
(С)
Тes
(С)
Комфортность P
(гПа)
Po
(гПа)
Тmin
(С)
Tmax
(С)
R
(мм)
R24
(мм)
S
(см)
00 11.11 С 12-21
{26}
20 км слабый ливневой снег {метель} 8/8 600 м
[Cb cap]
-0.6 -8.5 55 -9 -9 1009.7 983.9 -1.8
03 11.11 С 12-19
{22}
50 км {ливн. осадки, метель} 8/8 600 м
[Cu Sc]
+0.5 -8.9 49 -7 -7 1012.0 986.2
06 11.11 С 10-17
{22}
50 км {ливн. осадки, метель} 8/8 600 м
[Cu Sc]
+0.5 -8.6 50 -7 -7 1013.9 988.1
09 11.11 С 8-15
{17}
50 км 1/1 1000 м
[Sc]
-0.0 -9.3 50 -7 -7 1016.4 990.4 +0.9 0.0
12 11.11 С 6-12
{16}
50 км 1/1 1000 м
[Sc]
-1.4 -9.3 55 -8 -8 1018.6 992.5
15 11.11 С 5
{12}
50 км ясно -2.6 -10.2 56 -9 -9 1020.3 994.0
18 11.11 С 4
{10}
50 км ясно -3.9 -11.0 58 -10 -10 1021.3 994.9
21 11.11 С 5 50 км ясно -4.6 -11.4 59 -11 -11 1021.3 994.8 -4.5
00 12.11 С 4 50 км ясно -2.8 -10.7 54 -8 -7 1021.3 994.9 -4.8
03 12.11 СВ 5 50 км ясно +2.2 -12.6 33 -2 0 1019.4 993.6
06 12.11 ЮВ 1 50 км ясно +4.5 -13.1 27 +4 +6 1018.1 992.5
09 12.11 З 1 50 км ясно +1.6 -13.6 31 +1 +1 1018.4 992.5 +4.8
12 12.11 СЗ 2 50 км ясно -2.1 -10.5 53 -5 -5 1019.3 993.1
15 12.11 С 2 50 км 9/9 1000 м
[Sc]
-2.8 -8.3 66 -6 -6 1019.7 993.4
18 12.11 С 2 50 км 10/10 1000 м
[Sc]
-0.7 -6.9 63 -4 -4 1018.1 992.1
21 12.11 С 1 50 км 3/1 1000 м
[Sc Ci fib]
-2.3 -7.2 69 -4 -4 1017.4 991.2 -3.8
00 13.11 СЗ 2 50 км 3/1 1000 м
[Sc Ci fib]
-1.2 -5.7 71 -5 -4 1017.1 991.0
03 13.11 ЮВ 2 50 км 8/0
[Ci]
+6.0 -1.7 58 +4 +8 1014.3 989.0
06 13.11 Ю 3 50 км 8/1 1000 м
[Cu hum Ci fib]
+8.5 -0.9 52 +6 +8 1010.9 985.9
09 13.11 Ю 4 50 км 8/0
[Ac trans Ci fib]
+5.7 -1.0 62 +2 +2 1009.6 984.3 +8.7
12 13.11 ЮЗ 3 10 км слабый дождь 10/10 1000 м
[Sc]
+5.6 +1.7 76 +2 +2 1007.4 982.2
15 13.11 СЗ 7-14
{15}
10 км слабый ливневой дождь {гроза} 10/10 600 м
[Cb cap]
+2.8 +0.2 83 -3 -3 1006.8 981.4
18 13.11 СЗ 4
{15}
50 км {гроза, ливн. осадки} 5/5 600 м
[Cb cap]
+3.1 -1.1 74 -1 -1 1008.2 982.8
21 13.11 СЗ 5-10
{11}
50 км ясно +1.2 -5.4 61 -4 -4 1008.8 983.2 +1.0 9
00 14.11 СЗ 6-12
{12}
20 км 3/3 600 м
[Cu hum]
+0.8 -8.8 49 -5 -5 1010.5 984.8 +0.5
03 14.11 С 5
{13}
50 км 6/6 1000 м
[Cu hum]
+1.2 -10.1 43 -4 -3 1009.8 984.1
06 14.11 СЗ 2 50 км 6/6 1000 м
[Cu Sc]
+1.0 -14.2 31 -1 -1 1010.1 984.4
09 14.11 В 1 50 км 1/1 1000 м
[Sc]
-1.5 -13.6 39 -3 -3 1012.0 986.0 +2.2
12 14.11 З 5
{10}
50 км ясно -1.6 -17.0 30 -7 -7 1013.1 987.1
15 14.11 З 3
{11}
50 км ясно -2.7 -17.3 32 -7 -7 1013.5 987.3
18 14.11 С 3 50 км ясно -3.7 -17.9 32 -8 -8 1013.5 987.3
21 14.11 СЗ 4
{10}
50 км ясно -4.8 -18.3 34 -10 -10 1013.4 987.0 -4.7
00 15.11 ЮЗ 2
{13}
50 км ясно -3.7 -19.4 28 -7 -6 1013.7 987.4 -5.4
03 15.11 СЗ 4
{10}
50 км 1/1 1000 м
[Cu hum]
-2.6 -18.5 28 -8 -5 1012.4 986.3
06 15.11 С 5 50 км 1/1 1000 м
[Cu hum]
-2.8 -16.4 34 -9 -8 1012.9 986.8
09 15.11 С 4
{11}
50 км 1/1 1000 м
[Sc]
-5.4 -14.9 47 -11 -11 1015.8 989.4 -1.8
12 15.11 С 2 50 км ясно -6.4 -16.0 46 -10 -10 1017.7 991.1
15 15.11 С 3 50 км ясно -6.7 -17.0 44 -12 -12 1019.1 992.4
18 15.11 С 4 50 км ясно -7.4 -16.2 49 -14 -14 1020.1 993.3
21 15.11 С 4 50 км 3/0
[Ac trans]
-8.0 -16.3 51 -14 -14 1021.1 994.2 -8.2
00 16.11 С 4
{11}
50 км 3/3 1000 м
[Cu Sc]
-6.4 -16.1 46 -12 -12 1022.2 995.5 -8.3
03 16.11 С 6
{14}
50 км ясно -3.9 -18.1 32 -11 -9 1020.8 994.4
06 16.11 С 5
{10}
50 км ясно -2.9 -17.5 31 -9 -8 1020.0 993.7
09 16.11 С 5 50 км ясно -5.4 -16.1 43 -12 -12 1022.0 995.4 -2.8
12 16.11 С 3 50 км ясно -7.5 -16.7 48 -13 -13 1023.4 996.6
15 16.11 СЗ 1 50 км ясно -8.8 -17.0 51 -11 -11 1024.0 997.0
18 16.11 С 3 50 км ясно -11.3 -16.4 66 -17 -17 1023.7 996.5
21 16.11 СЗ 1 50 км ясно -12.7 -16.9 71 -15 -15 1023.8 996.4 -12.7
00 17.11 СВ 1 50 км 5/0
[Cc]
-9.3 -15.3 62 -11 -10 1022.9 995.9 -13.3
03 17.11 СВ 1 50 км 6/0
[Ci fib]
-1.7 -15.8 33 -3 +2 1018.9 992.7
06 17.11 СВ 1 20 км 10/0
[As trans]
-1.6 -12.8 42 -3 -2 1016.7 990.6
09 17.11 СЗ 2 2000 м снег 10/10 300 м
[Frnb Ns]
-4.5 -5.7 91 -9 -9 1017.3 990.9 -0.7 3
12 17.11 С 5 4000 м слабый снег 10/0 600 м
[As op]
-4.5 -6.5 86 -12 -12 1015.7 989.4
15 17.11 С 5
{12}
20 км {снег} 8/0
[Ac As]
-6.0 -11.8 64 -13 -13 1016.1 989.6
18 17.11 С 4
{10}
20 км {снег} 3/0
[Ac trans]
-8.8 -15.2 60 -15 -15 1016.5 989.7

 

Местоположение метеостанции Партизанск (Приморский край, Россия): широта 43.15 долгота 133.00 высота над уровнем моря 208 м.

В архиве по умолчанию представлена погода в Партизанске за последнюю неделю. Архивные данные за месяц целиком и за предыдущие месяцы, начиная с января 2011 года, Вы можете получить, выбрав интересующий диапазон дат из раскрывающегося списка и нажав кнопку "Ввод!".

Внимание! Время в таблицах - всемирное. Для получения местного времени необходимо прибавить поправку, которая в Партизанске равна 10 ч.

Смотрите также архив погоды в соседних городах и на ближайших метеорологических станциях:

Погода в Находке (Приморский край, Россия) (42 км)
Погода в Многоудобном (Приморский край, Россия) (56 км)
Погода в Лазо (Приморский край, Россия) (71 км)
Погода в Преображении (Приморский край, Россия) (78 км)
Погода в Владивостоке (Приморский край, Россия) (89 км)
Погода на Мысе Назимова (Приморский край, Россия) (90 км)
Погода в Анучино (Приморский край, Россия) (91 км)
Погода в Лучегорске (Приморский край, Россия) (117 км)
Погода в Тимирязевском (Приморский край, Россия) (120 км)
Погода в Чугуевке (Приморский край, Россия) (129 км)

Пояснения к столбцам:

Ветер - указаны скорость ветра в м/с - средняя за 10 мин, порывы в срок и между сроками (в фигурных скобках) и направление, откуда дует ветер: С - северный, СВ - северо-восточный, В - восточный, ЮВ - юго-восточный, Ю - южный, ЮЗ - юго-западный, З - западный, СЗ - северо-западный.
Видимость - горизонтальная дальность видимости в метрах или километрах. При видимости от 1 до 10 км при отсутствии осадков обычно наблюдается дымка, при ухудшении видимости до 1 км и менее - туман. В сухую погоду видимость может ухудшаться дымом, пылью или мглою.
Явления - указаны атмосферные явления, наблюдавшиеся в срок или в последний час перед сроком; фигурными скобками обозначены явления, наблюдавшиеся между сроками (за 1-3 часа до срока); квадратными скобками обозначены град или гололедные отложения с указанием их диаметра в мм.
Облачность - указаны через наклонную черту общая и нижняя облачность в баллах и высота нижней границы облаков в метрах; квадратными скобками обозначены формы облаков: Ci - перистые, Cs - перисто-слоистые, Cc - перисто-кучевые, Ac - высококучевые, As - высокослоистые, Sc - слоисто-кучевые, Ns - слоисто-дождевые, Cu - кучевые, Cb - кучево-дождевые. Подробнее классификацию облаков см. в Атласе облаков (PDF).
T - Температура воздуха - температура, измеренная на высоте 2 м над землей.
Td - Температура точки росы - температура, при понижении до которой содержащийся в воздухе водяной пар достигнет насыщения.
f - Относительная влажность воздуха - влажноcть воздуха, измеренная на высоте 2 м над землей.
Te - Эффективная температура - температура, которую ощущает одетый по сезону человек в тени. Характеристика душности погоды. При расчете учитывается влияние влажности воздуха и скорости ветра на теплоощущения человека.
Tes - Эффективная температура на солнце - температура, которую ощущает человек, с поправкой на солнечный нагрев. Характеристика знойности погоды. Зависит от высоты солнца над горизонтом, облачности и скорости ветра. Ночью, в пасмурную погоду, а также при ветре 12 м/с и более поправка равна нулю.
P - Атмосферное давление - приведенное к уровню моря атмосферное давление.
Po - Атмосферное давление - измеренное на уровне метеостанции атмосферное давление.
Tmin - Минимальная температура - минимум температуры воздуха на высоте 2 м над землей.
Tmax - Максимальная температура - максимум температуры воздуха на высоте 2 м над землей.
R - Количество осадков - Количество выпавших осадков за период времени, мм. При наведении курсора мыши на число - период времени, за который выпало указанное количество осадков.
R24 - Количество осадков - Количество выпавших осадков за 24 часа, мм.
S - Снежный покров - Высота снежного покрова, см. При наведении курсора мыши на число - состояние снежного покрова и степень покрытия местности в баллах.